星链-35695(STARLINK-35695)

导读

STARLINK-35695是美国SpaceX星链星座的卫星,于2025年11月21日发射入轨,星链系统旨在为全球提供高速互联网接入服务,该卫星继承了星链卫星的设计架构,运行在近地轨道,承担卫星网络节点职责,进一步扩容星链的全球覆盖与服务容量,支撑星链在消费、海事、航空等多场景的应用需求。

基本信息
目录编号:
66558
目录名称:
STARLINK-35695
国际标识:
2025-268B
轨道中心:
EARTH
卫星名称:
星链-35695
卫星全名:
星链-35695(STARLINK-35695)
卫星状态:
在轨 (已飞行204 天)
发射日期:
2025-11-21 UTC
国别 :
美国 (US)
星等 :
--
轨道信息
数据来源 国际轨道数据 AOE轨道数据
星历时间 2026-06-12T14:00:03+0800
1天前
查看轨道信息
2026-06-10T05:00:00+0800
3天前
查看轨道信息
半长轴 6861.184km 6861.198km
偏心率 0.0001766 0.0000031
轨道倾角 43.001° 43.004°
近地点辐角 270.936° 200.025°
升交点赤经 173.418° 186.833°
平近点角 217.456° 172.062°
近地点 481.835km 483.039km
远地点 484.259km 483.083km
周期 94.267分钟 94.267分钟
每日圈数 15.275808 15.275763
详细信息
固有亮度:
5
最大亮度:
2.5
卫星平台:
Starlink V1.0
覆盖范围:
全球
运营商:
太空探索技术公司
运营商所在国:
美国
制造商(研发单位):
太空探索技术公司
制造商所在国:
美国
使用方式:
暂无
卫星简介
Starlink 计划是 SpaceX 推出的全球卫星互联网项目,通过发射低轨道卫星,为全球尤其是偏远地区提供高速、低延迟的互联网服务。自 2019 年起,Starlink 已部署数千颗卫星,旨在缩小全球数字鸿沟,推动互联网普及。该项目还为军事、航空等行业提供通信支持,带来广泛经济效益。
2D轨道图
3D轨道图
轨道高度分析图
轨道倾角分析图
轨道综合分析图
查看轨道综合分析图